Time,TemperatureF,DewpointF,PressureIn,WindDirection,WindDirectionDegrees,WindSpeedMPH,WindSpeedGustMPH,Humidity,HourlyPrecipIn,Conditions,Clouds,dailyrainin,SoftwareType,DateUTC
2013-11-01 00:00:00,45.0,-99.9,-100.00,WSW,243,2.0,4.0,-999,0.00,,,-99.99,,2013-11-01 05:00:00,
2013-11-01 00:43:00,45.0,-99.9,-100.00,WSW,243,2.0,4.0,-999,0.00,,,-99.99,,2013-11-01 05:43:00,
2013-11-01 00:53:00,45.0,-99.9,-100.00,WSW,243,2.0,4.0,-999,0.00,,,-99.99,,2013-11-01 05:53:00,
2013-11-01 01:00:00,45.0,-99.9,-100.00,SW,235,2.0,4.0,-999,0.00,,,-99.99,,2013-11-01 06:00:00,
2013-11-01 01:42:00,45.0,-99.9,-100.00,SW,235,2.0,4.0,-999,0.00,,,-99.99,,2013-11-01 06:42:00,
2013-11-01 01:52:00,45.0,-99.9,-100.00,SW,235,2.0,4.0,-999,0.00,,,-99.99,,2013-11-01 06:52:00,
2013-11-01 02:00:00,44.0,-99.9,-100.00,WSW,256,2.0,4.0,-999,0.00,,,-99.99,,2013-11-01 07:00:00,
2013-11-01 02:42:00,44.0,-99.9,-100.00,WSW,256,2.0,4.0,-999,0.00,,,-99.99,,2013-11-01 07:42:00,
2013-11-01 02:52:00,44.0,-99.9,-100.00,WSW,256,2.0,4.0,-999,0.00,,,-99.99,,2013-11-01 07:52:00,
2013-11-01 03:00:00,44.0,-99.9,-100.00,WSW,240,4.0,9.0,-999,0.00,,,-99.99,,2013-11-01 08:00:00,
2013-11-01 03:42:00,44.0,-99.9,-100.00,WSW,240,4.0,9.0,-999,0.00,,,-99.99,,2013-11-01 08:42:00,
2013-11-01 03:52:00,44.0,-99.9,-100.00,WSW,240,4.0,9.0,-999,0.00,,,-99.99,,2013-11-01 08:52:00,
2013-11-01 04:00:00,44.0,-99.9,-100.00,West,260,4.0,9.0,-999,0.00,,,-99.99,,2013-11-01 09:00:00,
2013-11-01 04:43:00,44.0,-99.9,-100.00,West,260,4.0,9.0,-999,0.00,,,-99.99,,2013-11-01 09:43:00,
2013-11-01 04:53:00,44.0,-99.9,-100.00,West,260,4.0,9.0,-999,0.00,,,-99.99,,2013-11-01 09:53:00,
2013-11-01 05:00:00,44.0,-99.9,-100.00,West,262,3.0,13.0,-999,0.00,,,-99.99,,2013-11-01 10:00:00,
2013-11-01 05:43:00,44.0,-99.9,-100.00,West,262,3.0,13.0,-999,0.00,,,-99.99,,2013-11-01 10:43:00,
2013-11-01 05:53:00,44.0,-99.9,-100.00,West,262,3.0,13.0,-999,0.00,,,-99.99,,2013-11-01 10:53:00,
2013-11-01 06:00:00,43.0,-99.9,-100.00,WSW,257,3.0,7.0,-999,0.00,,,-99.99,,2013-11-01 11:00:00,
2013-11-01 06:42:00,43.0,-99.9,-100.00,WSW,257,3.0,7.0,-999,0.00,,,-99.99,,2013-11-01 11:42:00,
2013-11-01 06:52:00,43.0,-99.9,-100.00,WSW,257,3.0,7.0,-999,0.00,,,-99.99,,2013-11-01 11:52:00,
2013-11-01 07:00:00,42.0,-99.9,-100.00,West,265,3.0,10.0,-999,0.00,,,-99.99,,2013-11-01 12:00:00,
2013-11-01 07:42:00,42.0,-99.9,-100.00,West,265,3.0,10.0,-999,0.00,,,-99.99,,2013-11-01 12:42:00,
2013-11-01 07:52:00,42.0,-99.9,-100.00,West,265,3.0,10.0,-999,0.00,,,-99.99,,2013-11-01 12:52:00,
2013-11-01 08:00:00,42.0,-99.9,-100.00,West,277,3.0,7.0,-999,0.00,,,-99.99,,2013-11-01 13:00:00,
2013-11-01 08:42:00,42.0,-99.9,-100.00,West,277,3.0,7.0,-999,0.00,,,-99.99,,2013-11-01 13:42:00,
2013-11-01 08:52:00,42.0,-99.9,-100.00,West,277,3.0,7.0,-999,0.00,,,-99.99,,2013-11-01 13:52:00,
2013-11-01 09:00:00,42.0,-99.9,-100.00,WNW,290,3.0,9.0,-999,0.00,,,0.05,,2013-11-01 14:00:00,
2013-11-01 09:42:00,42.0,-99.9,-100.00,WNW,290,3.0,9.0,-999,0.00,,,0.05,,2013-11-01 14:42:00,
2013-11-01 09:52:00,42.0,-99.9,-100.00,WNW,290,3.0,9.0,-999,0.00,,,0.05,,2013-11-01 14:52:00,
2013-11-01 10:00:00,44.0,-99.9,-100.00,WNW,288,3.0,10.0,-999,0.00,,,0.05,,2013-11-01 15:00:00,
2013-11-01 10:44:00,44.0,-99.9,-100.00,WNW,288,3.0,10.0,-999,0.00,,,0.05,,2013-11-01 15:44:00,
2013-11-01 10:54:00,44.0,-99.9,-100.00,WNW,288,3.0,10.0,-999,0.00,,,0.05,,2013-11-01 15:54:00,
2013-11-01 11:00:00,46.0,-99.9,-100.00,WNW,300,3.0,8.0,-999,0.00,,,0.05,,2013-11-01 16:00:00,
2013-11-01 11:43:00,46.0,-99.9,-100.00,WNW,300,3.0,8.0,-999,0.00,,,0.05,,2013-11-01 16:43:00,
2013-11-01 11:53:00,46.0,-99.9,-100.00,WNW,300,3.0,8.0,-999,0.00,,,0.05,,2013-11-01 16:53:00,
2013-11-01 12:00:00,47.0,-99.9,-100.00,WNW,290,3.0,11.0,-999,0.00,,,0.03,,2013-11-01 17:00:00,
2013-11-01 12:43:00,47.0,-99.9,-100.00,WNW,290,3.0,11.0,-999,0.00,,,0.03,,2013-11-01 17:43:00,
2013-11-01 12:52:00,47.0,-99.9,-100.00,WNW,290,3.0,11.0,-999,0.00,,,0.03,,2013-11-01 17:52:00,
2013-11-01 14:00:00,54.0,-99.9,-100.00,WNW,290,4.0,11.0,-999,0.00,,,0.00,,2013-11-01 19:00:00,
2013-11-01 14:42:00,54.0,-99.9,-100.00,WNW,290,4.0,11.0,-999,0.00,,,0.00,,2013-11-01 19:42:00,
2013-11-01 14:52:00,54.0,-99.9,-100.00,WNW,290,4.0,11.0,-999,0.00,,,0.00,,2013-11-01 19:52:00,
2013-11-01 15:00:00,55.0,-99.9,-100.00,NW,318,5.0,13.0,-999,0.00,,,0.00,,2013-11-01 20:00:00,
2013-11-01 15:42:00,55.0,-99.9,-100.00,NW,318,5.0,13.0,-999,0.00,,,0.00,,2013-11-01 20:42:00,
2013-11-01 15:52:00,55.0,-99.9,-100.00,NW,318,5.0,13.0,-999,0.00,,,0.00,,2013-11-01 20:52:00,
2013-11-01 16:00:00,55.0,-99.9,-100.00,WNW,295,3.0,7.0,-999,0.00,,,0.00,,2013-11-01 21:00:00,
2013-11-01 16:44:00,55.0,-99.9,-100.00,WNW,295,3.0,7.0,-999,0.00,,,0.00,,2013-11-01 21:44:00,
2013-11-01 16:55:00,55.0,-99.9,-100.00,WNW,295,3.0,7.0,-999,0.00,,,0.00,,2013-11-01 21:55:00,
2013-11-01 17:00:00,55.0,-99.9,-100.00,WNW,288,3.0,10.0,-999,0.00,,,0.00,,2013-11-01 22:00:00,
2013-11-01 17:42:00,55.0,-99.9,-100.00,WNW,288,3.0,10.0,-999,0.00,,,0.00,,2013-11-01 22:42:00,
2013-11-01 17:53:00,55.0,-99.9,-100.00,WNW,288,3.0,10.0,-999,0.00,,,0.00,,2013-11-01 22:53:00,
2013-11-01 18:00:00,54.0,-99.9,-100.00,WNW,295,4.0,11.0,-999,0.00,,,0.00,,2013-11-01 23:00:00,
2013-11-01 18:42:00,54.0,-99.9,-100.00,WNW,295,4.0,11.0,-999,0.00,,,0.00,,2013-11-01 23:42:00,
2013-11-01 18:53:00,54.0,-99.9,-100.00,WNW,295,4.0,11.0,-999,0.00,,,0.00,,2013-11-01 23:53:00,
2013-11-01 19:00:00,50.0,-99.9,-100.00,WNW,293,2.0,3.0,-999,0.00,,,0.00,,2013-11-02 00:00:00,
2013-11-01 19:42:00,50.0,-99.9,-100.00,WNW,293,2.0,3.0,-999,0.00,,,0.00,,2013-11-02 00:42:00,
2013-11-01 19:52:00,50.0,-99.9,-100.00,WNW,293,2.0,3.0,-999,0.00,,,0.00,,2013-11-02 00:52:00,
2013-11-01 20:00:00,48.0,-99.9,-100.00,SW,236,1.0,3.0,-999,0.00,,,0.00,,2013-11-02 01:00:00,
2013-11-01 20:42:00,48.0,-99.9,-100.00,SW,236,1.0,3.0,-999,0.00,,,0.00,,2013-11-02 01:42:00,
2013-11-01 20:52:00,48.0,-99.9,-100.00,SW,236,1.0,3.0,-999,0.00,,,0.00,,2013-11-02 01:52:00,
2013-11-01 21:00:00,50.0,-99.9,-100.00,WNW,298,4.0,9.0,-999,0.00,,,0.00,,2013-11-02 02:00:00,
2013-11-01 21:42:00,50.0,-99.9,-100.00,WNW,298,4.0,9.0,-999,0.00,,,0.00,,2013-11-02 02:42:00,
2013-11-01 21:53:00,50.0,-99.9,-100.00,WNW,298,4.0,9.0,-999,0.00,,,0.00,,2013-11-02 02:53:00,
2013-11-01 23:00:00,48.0,-99.9,-100.00,WNW,285,4.0,10.0,-999,0.00,,,0.00,,2013-11-02 04:00:00,
2013-11-01 23:44:00,48.0,-99.9,-100.00,WNW,285,4.0,10.0,-999,0.00,,,0.00,,2013-11-02 04:44:00,
2013-11-01 23:54:00,48.0,-99.9,-100.00,WNW,285,4.0,10.0,-999,0.00,,,0.00,,2013-11-02 04:54:00,